This demonstration page uses our WeatherBlox Daily Observations layout. Learn more.

Left ArrowRight Arrow

Hourly Observations for October 29, 2018

Temp ( °F °C ) Dew Point ( °F °C ) Humidity (%) Winds ( mph kmh ) Pressure ( in mb ) Visibility ( mi km ) Precip ( " mm )
12:51 am 00:51 Clear 57 13.9 47 8.3 69 69 NNW 3 6 30.00 1016 10 16 0.00 0.00
1:51 am 01:51 Clear 54 12.2 46 7.8 75 75 Calm 29.99 1016 10 16 0.00 0.00
2:51 am 02:51 Clear 53 11.7 46 7.8 77 77 Calm 29.99 1016 10 16 0.00 0.00
3:51 am 03:51 Clear 52 11.1 46 7.8 80 80 Calm 29.99 1016 10 16 0.00 0.00
4:51 am 04:51 Clear 53 11.7 47 8.3 80 80 SE 3 6 30.00 1016 10 16 0.00 0.00
5:51 am 05:51 Clear 51 10.6 46 7.8 83 83 E 3 6 30.03 1017 10 16 0.00 0.00
6:51 am 06:51 Sunny 52 11.1 46 7.8 80 80 SSE 5 7 30.05 1018 10 16 0.00 0.00
7:51 am 07:51 Sunny 54 12.2 48 8.9 80 80 Calm 30.06 1018 10 16 0.00 0.00
8:51 am 08:51 Sunny 63 17.2 47 8.3 56 56 S 3 6 30.06 1018 10 16 0.00 0.00
9:51 am 09:51 Sunny 70 21.1 44 6.7 39 39 ESE 7 11 30.04 1017 10 16 0.00 0.00
10:51 am 10:51 Sunny 71 21.7 45 7.2 39 39 SSE 6 9 30.03 1017 10 16 0.00 0.00
11:51 am 11:51 Sunny 74 23.3 43 6.1 33 33 VRB 3 6 30.00 1016 10 16 0.00 0.00
12:51 pm 12:51 Sunny 77 25 43 6.1 30 30 SSE 5 7 29.96 1014 10 16 0.00 0.00
1:51 pm 13:51 Sunny 79 26.1 43 6.1 28 28 W 5 7 29.92 1013 10 16 0.00 0.00
2:51 pm 14:51 Sunny 80 26.7 42 5.6 26 26 SSW 5 7 29.90 1012 10 16 0.00 0.00
3:51 pm 15:51 Sunny 79 26.1 42 5.6 27 27 W 6 9 29.89 1012 10 16 0.00 0.00
4:51 pm 16:51 Sunny 78 25.6 43 6.1 29 29 WNW 8 13 29.88 1012 10 16 0.00 0.00
5:51 pm 17:51 Clear 70 21.1 45 7.2 41 41 NW 5 7 29.90 1013 10 16 0.00 0.00
6:51 pm 18:51 Clear 67 19.4 46 7.8 47 47 NNE 8 13 29.91 1013 10 16 0.00 0.00
7:51 pm 19:51 Clear 64 17.8 47 8.3 54 54 N 5 7 29.91 1013 10 16 0.00 0.00
8:51 pm 20:51 Clear 62 16.7 47 8.3 58 58 SSE 3 6 29.90 1013 10 16 0.00 0.00
9:51 pm 21:51 Clear 62 16.7 48 8.9 60 60 S 3 6 29.89 1012 10 16 0.00 0.00
10:51 pm 22:51 Clear 59 15 48 8.9 67 67 Calm 29.90 1012 10 16 0.00 0.00
11:51 pm 23:51 Clear 59 15 47 8.3 64 64 SSE 7 11 29.88 1012 10 16 0.00 0.00

Powered by AerisWeather